Regional Weather Roundup
Issued by NWS

Home | Current Version | Previous Version | Text Only | Print | Product List | Glossary Off
Versions: 1 2 3 4 5 6 7 8 9 10 11 12 13 14 15 16 17 18 19 20 21 22 23 24 25 26 27 28 29 30 31 32 33 34 35 36 37 38 39 40 41 42 43 44 45 46 47 48 49 50

000
ASUS43 KOAX 240910
RWRNE

WEATHER ROUNDUP FOR NEBRASKA
NATIONAL WEATHER SERVICE OMAHA NE
300 AM CST FRI NOV 24 2017

NOTES: SATELLITE DATA IS BEING USED TO AUGMENT CLOUD COVER ABOVE
       12000 FEET.
       "FAIR" INDICATES FEW OR NO CLOUDS BELOW 12,000 FEET WITH NO
       SIGNIFICANT WEATHER AND/OR OBSTRUCTIONS TO VISIBILITY.


NEZ001>004-019>022-054>056-241000-
NEBRASKA PANHANDLE

CITY           SKY/WX    TMP DP  RH WIND       PRES   REMARKS
SCOTTSBLUFF    CLOUDY    59  34  39 W13       29.74S
ALLIANCE       CLEAR     56  37  49 W20       29.71F
CHADRON        CLEAR     56  38  50 W15       29.64F
GORDON         FAIR      45  36  71 W5        29.64F
KIMBALL        CLOUDY    58  31  35 W13       29.82F
SIDNEY         CLOUDY    50  32  50 NW10      29.79S
$$

NEZ057>060-069>072-079>082-241000-
SOUTHWEST NEBRASKA

CITY           SKY/WX    TMP DP  RH WIND       PRES   REMARKS
NORTH PLATTE   PTCLDY    40  35  83 NW7       29.71S
IMPERIAL       CLEAR     50  30  46 W13       29.75F
LEXINGTON      CLOUDY    43  35  73 NW3       29.68F
MCCOOK         CLEAR     45  36  70 W13       29.73F
OGALLALA       CLEAR     42  32  67 W6        29.73F
$$

NEZ005>010-023>029-035>040-094-241000-
NORTH CENTRAL NEBRASKA

CITY           SKY/WX    TMP DP  RH WIND       PRES   REMARKS
VALENTINE      CLEAR     45  36  70 SW8       29.58F
AINSWORTH      CLEAR     48  38  69 W10       29.58F
BROKEN BOW     CLEAR     47  36  65 W7        29.64F
O`NEILL        CLEAR     46  39  76 SW7       29.56S
ORD            CLOUDY    50  39  66 CALM      29.60F
THEDFORD       CLEAR     52  38  58 W10       29.65F
$$

NEZ041-046>049-061>064-073>077-083>087-241000-
SOUTH CENTRAL NEBRASKA

CITY           SKY/WX    TMP DP  RH WIND       PRES   REMARKS
GRAND ISLAND   PTCLDY    51  40  65 SW12      29.63F
AURORA         CLOUDY    52  39  62 SW14      29.63F
HASTINGS       MOCLDY    52  38  58 SW7       29.67F
HEBRON         PTCLDY    54  41  61 SW8       29.69F
HOLDREGE       PTCLDY    50  38  64 SW9       29.68F
KEARNEY        PTCLDY    52  37  56 SW10      29.67F
YORK           CLOUDY    52  41  66 SW13      29.64F
$$

NEZ011>018-030>034-042>045-241000-
NORTHEAST NEBRASKA

CITY           SKY/WX    TMP DP  RH WIND       PRES   REMARKS
NORFOLK        CLEAR     48  40  73 SW10      29.56F
ALBION         CLOUDY    51  40  68 W3        29.59F
BLAIR          CLEAR     52  40  64 S13       29.60F
COLUMBUS       PTCLDY    51  40  65 SW8       29.60F
FREMONT        CLEAR     51  39  64 S9        29.61F
TEKAMAH        CLEAR     46  37  71 SE9       29.60F
WAYNE          CLEAR     48  40  74 SW10      29.55F
$$

NEZ050>053-065>068-078-088>093-241000-
SOUTHEAST NEBRASKA

CITY           SKY/WX    TMP DP  RH WIND       PRES   REMARKS
LINCOLN        PTCLDY    54  40  59 S12       29.65F
OMAHA EPPLEY   PTCLDY    45  37  73 SE13      29.63F
BEATRICE       CLOUDY    51  40  64 S8        29.69F
FALLS CITY     CLEAR     51  37  58 S15       29.72F
NEBRASKA CITY  PTCLDY    52  39  61 SW10      29.68F
PLATTSMOUTH    PTCLDY    53  40  62 S18       29.65F
$$

NEZ044-045-051>053-067-241000-
OMAHA AREA

CITY           SKY/WX    TMP DP  RH WIND       PRES   REMARKS
OMAHA EPPLEY   PTCLDY    45  37  73 SE13      29.63F
BLAIR          CLEAR     52  40  64 S13       29.60F
FREMONT        CLEAR     51  39  64 S9        29.61F
MILLARD        CLEAR     53  41  63 SE6       29.63F
OFFUTT AFB     CLEAR     41  36  82 E8        29.64F
PLATTSMOUTH    PTCLDY    53  40  62 S18       29.65F
WAHOO          FAIR      52  39  62 S12       29.62F
$$



USA.gov is the U.S. government's official web portal to all federal, state and local government web resources and services.